Regional Weather Roundup
Issued by NWS

Home | Current Version | Previous Version | Graphics & Text | Print | Product List | Glossary On
Versions: 1 2 3 4 5 6 7 8 9 10 11 12 13 14 15 16 17 18 19 20 21 22 23 24 25 26 27 28 29 30 31 32 33 34 35 36 37 38 39 40 41 42 43 44 45 46 47 48 49 50
000
ASUS43 KMKX 061721
RWRWI

WISCONSIN REGIONAL WEATHER ROUNDUP
NATIONAL WEATHER SERVICE MILWAUKEE/SULLIVAN WI
1200 PM CDT MON JUL 06 2015

NOTE: "FAIR" INDICATES FEW OR NO CLOUDS BELOW 12,000 FEET WITH NO
SIGNIFICANT WEATHER AND/OR OBSTRUCTIONS TO VISIBILITY.

WIZ001-002-006>008-014>016-023>028-061800-
NORTHWEST WISCONSIN

CITY           SKY/WX    TMP DP  RH WIND       PRES   REMARKS
SUPERIOR ARPT  RAIN      60  59  97 NE6       29.91R
ASHLAND        LGT RAIN  60  59  96 N12       29.90R VSB 1
HAYWARD        HVY RAIN  63  61  93 N12       29.86R FOG
SIREN          RAIN      59  57  94 N16G23    29.90R
CUMBERLAND     DRIZZLE   68  66  94 SW3       29.82S
RICE LAKE      RAIN      70  68  93 S5        29.83S
CHETEK         LGT RAIN  71  71  97 SE6       29.81F
LADYSMITH      RAIN      70  68  94 CALM      29.84F
EAU CLAIRE     CLOUDY    74  69  85 S8        29.78F
MENOMONIE      LGT RAIN  71  70  99 CALM      29.80F
NEW RICHMOND   LGT RAIN  66  65  96 N22G30    29.84R
OSCEOLA        RAIN      64  64 100 N14G23    29.89R
$$

WIZ003>005-009-010-017-018-061800-
NORTH CENTRAL WISCONSIN

CITY           SKY/WX    TMP DP  RH WIND       PRES   REMARKS
MANITOWISH WTR RAIN      68  68 100 CALM      29.83F
ARBOR VITAE    DRIZZLE   70  68  93 S5        29.84F
WOODRUFF       DRIZZLE   70  68  93 S5        29.84F
RHINELANDER    CLOUDY    70  67  90 S9        29.85F
EAGLE RIVER    LGT RAIN  68  68 100 SE6       29.84F
LAND O LAKES   RAIN      69  68  96 SE3       29.84F
PHILLIPS       DRIZZLE   69  68  97 S8        29.82F
TOMAHAWK       CLOUDY    69  67  94 CALM      29.84S FOG
MEDFORD        CLOUDY    71  70  96 S9        29.83F
MERRILL        CLOUDY    72  70  95 S3        29.83F FOG
$$

WIZ029-030-035-036-043>047-061800-
CENTRAL WISCONSIN

CITY           SKY/WX    TMP DP  RH WIND       PRES   REMARKS
WAUSAU         LGT RAIN  72  69  90 S8        29.82F
MOSINEE        LGT RAIN  72  72 100 S9        29.85F
MARSHFIELD     LGT RAIN  76  69  79 S12       29.84S
STEVENS POINT  CLOUDY    72  69  91 S12G18    29.86S FOG
WAUPACA        CLOUDY    75  73  93 S5        29.87F FOG
WAUTOMA        CLOUDY    74  73  96 S10       29.88R
WISC RAPIDS    CLOUDY    75  69  81 SW10      29.86S
CAMP DOUGLAS   CLOUDY    77  77 100 VRB7      29.84F
$$

WIZ011>013-019>022-031-037>040-048>050-061800-
NORTHEAST WISCONSIN

CITY           SKY/WX    TMP DP  RH WIND       PRES   REMARKS
ANTIGO         LGT RAIN  67  67  99 SE6       29.84F
SHAWANO        LGT RAIN  73  69  87 S7        29.86F
OCONTO         CLOUDY    73  73 100 SW6       29.86F
STURGEON BAY   CLOUDY    70  64  83 S5        29.90S
GREEN BAY      CLOUDY    75  70  84 S7        29.87F HAZE
MANITOWOC      CLOUDY    71  65  81 MISG      29.90S HAZE
APPLETON       CLOUDY    75  68  78 W6        29.87F
CLINTONVILLE   RAIN      72  70  94 S6        29.86S
OSHKOSH        CLOUDY    78  69  73 SW10G21   29.88F HX  80
$$

WIZ032>034-041-042-053>061-061800-
SOUTHWEST WISCONSIN

CITY           SKY/WX    TMP DP  RH WIND       PRES   REMARKS
LA CROSSE      CLOUDY    76  70  82 S8        29.81F
SPARTA         CLOUDY    76  68  76 S8        29.83F
VIROQUA        CLOUDY    75  71  87 S8        29.85F
BOSCOBEL       LGT RAIN  76  69  79 VRB5      29.84F
PRAIRIE DU CHI DRIZZLE   73  67  80 E7        29.82F
PLATTEVILLE    CLOUDY    73  72  96 SE13      29.88F
$$

WIZ056-057-062-063-064-067-068-061800-
SOUTH CENTRAL WISCONSIN

CITY           SKY/WX    TMP DP  RH WIND       PRES   REMARKS
REEDSBURG      CLOUDY    74  71  88 S7        29.87F
BARABOO/DELLS  CLOUDY    74  69  84 S10G16    29.88F
LONE ROCK      LGT RAIN  76  70  82 S10       29.87F
MINERAL POINT  LGT RAIN  73  70  88 S7        29.91F
MADISON        LGT RAIN  73  70  90 SW6       29.90F FOG
MIDDLETON      CLOUDY    73  72  94 S10       29.92F
WATERTOWN      LGT RAIN  75  75 100 SW9       29.91F
MONROE         RAIN      70  70 100 SW9       29.93F
JANESVILLE     SHOWER    73  72  94 W18       29.94R
$$

WIZ051-052-058>065-066-070>072-061800-
SOUTHEAST WISCONSIN

CITY           SKY/WX    TMP DP  RH WIND       PRES   REMARKS
MILWAUKEE      CLOUDY    82  68  62 S16G24    29.92F HX  85
WAUKESHA       MOSUNNY   79  68  69 S14       29.93S HX  81
MILWAUKEE/TIMM MOSUNNY   81  66  61 S12G20    29.92F HX  83
RACINE         CLOUDY    77  65  66 S14       29.94F HAZE
BURLINGTON     CLOUDY    81  69  68 S13G21    29.92F HX  84
KENOSHA        CLOUDY    83  69  62 S15G21    29.93F HX  86
FOND DU LAC    CLOUDY    79  70  74 SW13G22   29.89F HX  82
SHEBOYGAN      CLOUDY    79  68  69 S15       29.90F HX  81
WEST BEND      CLOUDY    81  68  65 SW10      29.91S HX  83
JUNEAU         LGT RAIN  74  71  89 SW13G22   29.93S
$$

LSZ147-162-061800-
LAKE SUPERIOR

STATION/POSITION TIME  TEMP    WIND        PRES    WAVE
                       AIR SEA DIR/SP/G            HT/PER
                 (UTC) (F)     (DEG/KT/KT) (MB)    (FT/S)
W MID LAKE BUOY  1650   47 39   10/  6/  6 1012.1R   1
DEVILS ISLAND    1700   60      30/  9/ 11 1012.7R
PORT WING        1701   60      50/  8/ 11 1012.5S
SAXON HARBOR     1600   62      50/ 17/ 21 1010.5S
$$

LMZ867-665-643>646-061800-
LAKE MICHIGAN

STATION/POSITION TIME  TEMP    WIND        PRES    WAVE
                       AIR SEA DIR/SP/G            HT/PER
                 (UTC) (F)     (DEG/KT/KT) (MB)    (FT/S)
CHAMBERS ISLAND  1600   74     140/  6/ 12 1011.5F
S GREEN BAY BUOY 1600   73 69  180/ 10/ 14 1012.7F
N MID LAKE BUOY  1650   61 55  190/ 17/ 21 1011.8F   3/ 4
NORTHPORT PIER   1600   66     140/ 10/ 14 1011.9F
SISTER BAY       1614   74     180/ 16/ 23   N/A
ALGOMA LAKESHORE 1626          210/ 15/ 17   N/A
KEWAUNEE LAKESHO 1600   60     190/ 12/ 15 1011.9F
SHEBOYGAN LAKESH 1700   63     170/ 20/ 22 1012.6F
PORT WASHINGTON  1640   69     200/  7/ 12 1013.5F
ATWATER BUOY     1700   65 60  160/ 14/ 19 1014.3F
MILWAUKEE LAKESH 1700   65     140/ 16/ 19   N/A
KENOSHA   LAKESH 1700   65     160/ 12/ 15 1013.2F
$$

TC  - TEMPERATURE IN CELSIUS
VSB - VISIBILITY IN STATUTE MILES
WCI - WIND CHILL INDEX
HX  - HEAT INDEX



USA.gov is the U.S. government's official web portal to all federal, state and local government web resources and services.